Regional Weather Roundup
Issued by NWS

Home | Current Version | Previous Version | Text Only | Print | Product List | Glossary Off
Versions: 1 2 3 4 5 6 7 8 9 10 11 12 13 14 15 16 17 18 19 20 21 22 23 24 25 26 27 28 29 30 31 32 33 34 35 36 37 38 39 40 41 42 43 44 45 46 47 48 49 50

000
ASUS43 KBIS 060202
RWRND

NORTH DAKOTA REGIONAL WEATHER ROUNDUP
NATIONAL WEATHER SERVICE BISMARCK ND
900 PM CDT SUN JUL 05 2015

NOTE: "FAIR" INDICATES FEW OR NO CLOUDS BELOW 12,000 FEET WITH NO
SIGNIFICANT WEATHER AND/OR OBSTRUCTIONS TO VISIBILITY.


NDZ001>003-009>011-017-060300-
NORTHWEST NORTH DAKOTA

CITY           SKY/WX    TMP DP  RH WIND       PRES   REMARKS
WILLISTON      CLOUDY    71  49  45 N9        30.03S
MINOT          CLOUDY    69  57  65 NW12      29.97R HAZE
$$

NDZ018>021-031>035-040>046-060300-
SOUTHWEST NORTH DAKOTA

CITY           SKY/WX    TMP DP  RH WIND       PRES   REMARKS
BISMARCK       CLOUDY    71  62  73 NW6       29.97R HAZE
DICKINSON      CLOUDY    66  56  70 N5        30.03R HAZE
GARRISON         N/A     66  60  81 NW6       29.98R
HETTINGER ARPT CLOUDY    63  56  78 NW7       30.05S HAZE
$$

NDZ004>008-012>016-024-026-027-054-060300-
NORTHEAST NORTH DAKOTA

CITY           SKY/WX    TMP DP  RH WIND       PRES   REMARKS
GRAND FORKS    MOCLDY    69  62  78 N10       29.85R HAZE
GRND FRKS AFB  CLOUDY    67  60  77 N7        29.86R HAZE
DEVILS LAKE    CLOUDY    66  55  68 NW6       29.90R
$$

NDZ022-023-025-028>030-036>039-047>053-060300-
SOUTHEAST NORTH DAKOTA

CITY           SKY/WX    TMP DP  RH WIND       PRES   REMARKS
FARGO          MOCLDY    73  66  78 N16       29.79F
JAMESTOWN      CLOUDY    70  65  84 W7        29.91R HAZE
$$



USA.gov is the U.S. government's official web portal to all federal, state and local government web resources and services.